Location: Bluff Heights
(33.7692°N, 118.1592°W)
Time: 11:03:05
(UTC+00:00)

Vanguard 1 - All Passes

Search period start: 03 August 2021 00:00
Search period end: 13 August 2021 00:00
Orbit: 652 x 3831 km, 34.2° (Epoch: 02 August)

Date Brightness Start Highest point End Pass type
(mag) Time Alt. Az. Time Alt. Az. Time Alt. Az.
03 Aug - 00:45:58 10° W 00:55:27 31° SSW 01:10:19 10° SSE daylight
03 Aug - 15:48:36 10° SSW 15:52:02 20° SSE 15:55:25 10° E daylight
03 Aug - 18:07:05 10° WSW 18:11:33 79° SSE 18:17:47 10° E daylight
03 Aug - 20:26:27 10° W 20:32:05 88° S 20:42:07 10° E daylight
03 Aug - 22:45:56 10° W 22:53:38 52° SSW 23:07:44 10° SE daylight
04 Aug - 01:08:02 10° WSW 01:16:50 23° SSW 01:29:35 10° SSE daylight
04 Aug - 16:08:43 10° SW 16:12:47 31° SSE 16:16:53 10° E daylight
04 Aug - 18:27:57 10° W 18:32:30 89° N 18:39:04 10° E daylight
04 Aug - 20:47:19 10° W 20:53:08 79° SSW 21:03:38 10° ESE daylight
04 Aug - 23:07:04 10° W 23:14:50 41° SSW 23:28:28 10° SE daylight
05 Aug - 01:31:04 10° WSW 01:38:18 16° SSW 01:47:43 10° S daylight
05 Aug - 16:29:14 10° SW 16:33:35 46° SSE 16:38:07 10° E daylight
05 Aug - 18:48:51 10° W 18:53:29 85° N 19:00:23 10° E daylight
05 Aug - 21:08:10 10° W 21:14:10 67° SSW 21:25:00 10° ESE daylight
05 Aug - 23:28:24 10° W 23:36:04 32° SSW 23:48:45 10° SSE daylight
06 Aug - 01:57:53 10° SW 01:59:52 10° SSW 02:01:58 10° SSW daylight
06 Aug - 14:31:26 10° S 14:34:42 16° SSE 14:37:32 10° ESE daylight
06 Aug - 16:49:58 10° WSW 16:54:25 64° SSE 16:59:14 10° E daylight
06 Aug - 19:09:45 10° W 19:14:28 87° N 19:21:45 10° E daylight
06 Aug - 21:29:06 10° W 21:35:13 55° SSW 21:46:11 10° SE daylight
06 Aug - 23:50:07 10° WSW 23:57:24 24° SSW 00:08:28 10° SSE daylight
07 Aug - 14:51:13 10° SSW 14:55:35 24° SSE 14:59:15 10° E daylight
07 Aug - 17:10:52 10° WSW 17:15:18 82° S 17:20:20 10° E daylight
07 Aug - 19:30:38 10° W 19:35:28 86° S 19:43:07 10° ESE daylight
07 Aug - 21:50:07 10° W 21:56:19 43° SSW 22:07:04 10° SE daylight
08 Aug - 00:12:32 10° WSW 00:18:46 17° SSW 00:27:16 10° S daylight
08 Aug - 15:11:34 10° SW 15:16:28 36° SSE 15:20:31 10° E daylight
08 Aug - 17:31:49 10° W 17:36:14 87° N 17:41:27 10° E daylight
08 Aug - 19:51:29 10° W 19:56:26 74° SSW 20:04:25 10° ESE daylight
08 Aug - 22:11:17 10° W 22:17:27 33° SSW 22:27:35 10° SE daylight
09 Aug - 00:37:04 10° SW 00:40:14 11° SSW 00:43:51 10° SSW daylight
09 Aug - 13:13:25 10° S 13:17:05 15° SSE 13:20:05 10° ESE daylight
09 Aug - 15:32:15 10° WSW 15:37:19 51° SSE 15:41:36 10° E daylight
09 Aug - 17:52:47 10° W 17:57:12 84° N 18:02:38 10° E daylight
09 Aug - 20:12:23 10° W 20:17:24 59° SSW 20:25:36 10° ESE daylight
09 Aug - 22:32:47 10° WSW 22:38:39 25° SSW 22:47:37 10° SSE daylight
10 Aug - 13:32:51 10° SSW 13:38:08 22° SSE 13:42:03 10° ESE daylight
10 Aug - 15:53:09 10° WSW 15:58:13 69° SSE 16:02:37 10° E daylight
10 Aug - 18:13:44 10° W 18:18:09 87° N 18:23:49 10° E daylight
10 Aug - 20:33:20 10° W 20:38:24 46° SSW 20:46:34 10° SE daylight
10 Aug - 22:54:50 10° WSW 22:59:55 18° SSW 23:06:54 10° S daylight
11 Aug - 13:53:03 10° SW 13:59:07 31° SSE 14:03:26 10° E daylight
11 Aug - 16:14:11 10° WSW 16:19:07 85° S 16:23:35 10° E daylight
11 Aug - 18:34:39 10° W 18:39:06 82° S 18:45:01 10° ESE daylight
11 Aug - 20:54:26 10° W 20:59:25 34° SSW 21:07:15 10° SE daylight
11 Aug - 23:18:32 10° SW 23:21:15 11° SSW 23:24:24 10° S daylight
12 Aug - 11:54:27 10° S 11:59:08 15° SSE 12:02:48 10° ESE visible
12 Aug - 14:13:39 10° SW 14:20:05 44° SSE 14:24:33 10° E daylight
12 Aug - 16:35:15 10° W 16:40:04 86° N 16:44:36 10° E daylight
12 Aug - 18:55:35 10° W 19:00:02 67° SSW 19:06:08 10° ESE daylight
12 Aug - 21:15:46 10° WSW 21:20:31 25° SSW 21:27:29 10° SSE daylight
